{"data":{"norad_id":62199,"intl_designator":"2024-229H","name":"STARLINK-32653","alt_names":[],"object_type":"PAYLOAD","status":"ACTIVE","operator":null,"country":"US","launch_date":"2024-12-04","launch_site_code":"AFETR","launch_vehicle":null,"mission":null,"orbit_class":"UNKNOWN","rcs_meters":null,"size_class":null,"mass_kg":null,"dimensions":null,"purposes":["comms"],"wikipedia_slug":null,"has_3d_model":false,"image_url":null,"decayed_at":null,"tle_current":{"epoch":"2026-09-21T06:46:31.213344Z","epoch_age_seconds":110049,"freshness":"FRESH","line1":"1 62199U 24229H   26264.28230571  .00016607  00000+0  61191-3 0  9994","line2":"2 62199  42.9994 239.2377 0001709 250.6859 109.3808 15.27565801100551","mean_motion":15.27565801,"eccentricity":0.0001709,"inclination_deg":42.9994,"raan_deg":239.2377,"arg_perigee_deg":250.6859,"mean_anomaly_deg":109.3808,"bstar":0.00061191,"rev_number":10055,"period_min":94.267624940106,"perigee_km":481.91902931304,"apogee_km":484.26419725306,"semimajor_km":6861.2286132831,"source":"CELESTRAK","updated_at":"2026-09-22T09:00:49.540292Z"}}}